Location: Unnamed
(48.6007°N, 2.4808°E)
Time: 14:56:49
(UTC+02:00)

CUTE 1.7 + AOD 2 - Visible Passes

Search period start: 02 April 2023 00:00
Search period end: 12 April 2023 00:00
Orbit: 584 x 601 km, 97.7° (Epoch: 02 April)

Date Brightness Start Highest point End Pass type
(mag) Time Alt. Az. Time Alt. Az. Time Alt. Az.
02 Apr ? 04:23:41 10° NE 04:26:16 16° E 04:28:46 10° SE visible
02 Apr ? 05:58:04 10° N 06:02:14 58° WNW 06:05:22 17° SSW visible
03 Apr ? 04:32:12 10° NE 04:35:16 19° E 04:37:54 12° SE visible
03 Apr ? 06:07:02 10° N 06:11:06 47° WNW 06:14:31 14° SW visible
04 Apr ? 04:40:50 10° NE 04:44:14 23° E 04:47:02 13° SE visible
04 Apr ? 06:16:01 10° N 06:19:57 39° WNW 06:23:39 11° SW visible
05 Apr ? 04:49:30 10° NE 04:53:11 28° E 04:56:09 14° SSE visible
05 Apr ? 06:25:01 10° N 06:28:46 32° WNW 06:32:32 10° SW visible
06 Apr ? 04:58:13 10° NNE 05:02:06 34° E 05:05:15 14° SSE visible
06 Apr ? 06:34:01 10° N 06:37:34 27° WNW 06:41:07 10° WSW visible
07 Apr ? 05:06:58 10° NNE 05:11:00 42° E 05:14:20 14° SSE visible
08 Apr ? 05:15:44 10° NNE 05:19:52 52° E 05:23:24 14° S visible
09 Apr ? 05:24:30 10° NNE 05:28:43 64° ESE 05:32:28 13° S visible
10 Apr ? 05:33:18 10° NNE 05:37:33 80° ESE 05:41:31 12° S visible
11 Apr ? 04:08:58 10° ENE 04:10:11 11° E 04:11:25 10° ESE visible
11 Apr ? 05:42:06 10° NNE 05:46:21 84° WNW 05:50:33 10° SSW visible
